Temp
74 66 63 69 72 71 69 67 66 71 77 73 71 72 76 80 80 80 82 82 83 84 89 91 91 90 89 84 80 77 74 73 74 72 72 71 70 71 71 72 68 68 68 68
68 62 70 73 73 70 68 64 64 70 74 71 70 69 74 78 78 80 81 82 83 85 87 89 91 87 85 83 80 76 74 73 73 74 74 73 72 71 71 69 67 67 66 67
62 68 73 67 67 64 64 61 62 63 69 71 68 65 69 77 82 79 80 82 83 80 79 84 87 85 83 80 79 77 75 74 74 74 75 73 72 70 67 65 65 64 65 65
65 71 67 65 63 65 58 67 66 64 62 55 68 55 67 74 75 76 79 74 73 72 74 77 79 83 80 78 79 76 75 74 74 74 74 71 69 66 67 65 66 64 64 64
60 62 60 58 61 65 60 67 64 62 59 58 59 54 62 70 70 74 74 70 69 69 70 71 75 81 82 79 77 72 72 71 71 71 73 71 69 69 68 67 62 62 62 62
61 69 64 60 64 63 63 60 60 59 56 43 54 53 57 64 70 74 69 66 65 67 67 68 73 76 79 78 74 69 68 68 67 67 69 69 67 68 66 63 60 60 60 60
62 62 66 65 57 64 60 54 44 44 43 43 58 55 60 64 62 62 62 64 65 66 65 66 66 70 73 74 68 65 64 63 64 63 63 65 65 66 64 61 60 57 58 57
49 47 62 62 56 55 57 56 44 35 40 47 61 50 58 64 63 64 63 64 65 65 65 65 64 65 67 68 67 64 63 61 60 59 59 62 64 63 62 60 59 56 54 51
46 48 59 59 60 58 53 49 59 46 49 42 49 57 58 60 59 60 62 63 63 63 63 64 65 63 64 65 67 61 60 59 57 57 55 55 56 55 53 53 53 53 49 48
50 38 54 57 57 58 52 53 40 44 29 30 44 48 53 54 56 59 61 62 63 63 62 62 62 61 62 64 66 62 59 58 55 52 51 51 50 51 50 49 49 47 47 47
51 43 42 50 47 47 49 42 37 35 33 29 31 42 52 50 51 52 59 61 63 64 62 62 61 60 61 62 59 55 54 50 48 48 48 47 48 48 48 47 47 47 46 46
51 43 36 43 54 56 52 45 44 30 28 33 29 32 51 51 51 55 55 60 63 64 63 62 61 60 58 56 54 52 49 47 47 46 46 45 46 46 45 45 45 45 44 43
45 38 31 37 46 52 47 50 48 46 40 29 27 33 49 48 46 51 56 59 61 63 63 61 60 59 56 54 52 49 48 47 46 45 44 42 42 42 41 41 42 42 40 39
45 40 34 29 37 45 40 45 47 41 30 31 31 33 42 46 48 53 56 58 61 64 64 61 60 49 56 53 51 49 48 47 46 46 44 42 41 40 39 39 40 39 39 38
43 32 38 40 43 44 42 44 45 37 36 29 36 37 46 51 52 52 55 59 62 63 63 63 60 55 56 53 52 51 48 47 46 45 43 41 40 38 37 37 37 37 38 40
46 31 36 33 41 42 39 43 43 45 46 45 44 43 54 57 58 52 55 58 59 61 63 63 62 61 55 56 52 53 49 47 44 40 37 37 35 36 36 37 37 38 39 39
37 33 30 25 38 38 26 39 44 42 48 47 40 48 56 54 56 55 57 58 59 60 59 60 61 62 59 58 56 53 48 44 40 37 36 35 36 35 36 36 36 36 37 40
36 34 32 25 31 19 39 50 50 47 49 51 51 53 54 56 57 58 60 59 59 59 59 60 62 62 64 62 59 55 49 44 39 36 35 36 36 35 36 37 37 40 42 41
44 37 29 21 24 32 38 46 46 44 44 54 53 54 56 58 58 57 62 62 59 59 60 61 62 62 63 64 61 54 45 43 37 35 34 35 36 36 37 39 39 39 38 38
46 44 33 28 21 19 38 51 52 51 38 54 55 54 55 56 45 51 56 59 59 60 60 60 60 61 60 61 62 50 41 39 36 35 34 34 36 34 35 36 34 35 38 39
34 31 26 28 25 33 47 52 53 28 39 54 56 57 56 52 55 56 58 58 59 59 58 58 59 58 57 56 57 46 40 37 36 35 33 33 33 33 33 33 33 37 39 38
33 30 29 29 23 22 49 50 41 46 54 53 57 57 55 57 56 56 57 57 58 58 58 58 57 55 54 50 46 39 36 35 35 33 32 32 32 32 32 33 35 38 38 35
31 34 29 32 33 38 44 46 51 45 50 53 50 57 57 56 56 58 57 58 58 57 59 59 57 53 50 47 43 36 33 33 32 32 31 32 32 33 33 33 34 35 36 34
43 47 37 37 44 46 43 49 51 49 48 54 56 57 58 56 57 57 58 59 59 60 58 58 55 50 46 45 42 37 34 34 33 32 32 33 32 32 32 34 35 35 33 32
42 44 39 39 44 47 48 50 52 54 55 57 58 58 57 57 56 57 57 58 59 58 59 56 51 47 44 42 39 35 35 35 35 35 33 32 32 32 31 34 34 33 33 33
46 42 37 35 47 46 47 51 51 50 51 55 55 55 57 57 55 57 56 58 58 58 58 54 47 43 40 39 36 35 36 36 36 35 33 33 31 33 34 35 33 34 32 32
MSLP
1004.44 1004.20 1002.39 1001.71 1001.67 1001.44 1001.21 1000.68 999.78 999.39 999.36 999.36 998.85 998.24 998.20 998.33 998.23 997.90 997.86 998.09 998.21 998.13 998.07 998.43 998.85 999.81 1000.69 1002.08 1003.60 1005.17 1006.69 1007.89 1008.66 1009.08 1009.43 1010.14 1010.68 1011.42 1012.21 1012.82 1013.99 1014.27 1014.54 1014.87
1004.38 1002.50 1002.55 1002.15 1001.53 1001.24 1001.02 1000.67 999.90 999.48 999.42 999.51 998.98 997.64 998.03 997.44 996.99 997.02 997.18 997.45 997.53 997.44 997.40 997.37 997.80 999.17 1000.45 1001.70 1003.07 1004.70 1005.85 1006.96 1007.75 1008.34 1008.97 1009.58 1010.18 1011.14 1011.94 1012.98 1013.92 1014.19 1014.64 1014.77
1003.58 1002.47 1002.19 1002.47 1001.92 1001.95 1001.18 1000.94 1000.85 1000.27 999.95 999.34 999.21 996.61 997.35 996.43 995.05 995.81 996.73 997.26 997.92 998.28 998.05 997.44 997.56 998.90 1000.30 1001.41 1002.47 1004.08 1005.43 1006.34 1007.15 1007.59 1008.32 1009.18 1010.03 1010.93 1011.85 1012.96 1013.83 1014.50 1014.87 1015.05
1003.51 1003.18 1002.73 1002.34 1001.92 1002.48 1000.82 1001.92 1001.05 1000.91 1000.61 998.99 999.31 995.55 995.66 995.66 995.53 996.30 996.25 997.88 999.24 999.97 1000.32 1000.03 999.41 999.04 1000.39 1001.66 1002.59 1003.83 1004.92 1005.69 1006.71 1007.20 1007.53 1008.18 1008.94 1009.85 1011.19 1012.44 1013.38 1014.30 1014.87 1015.43
1003.15 1003.19 1003.66 1003.49 1002.77 1002.78 1000.86 1002.05 1001.69 1001.21 1001.10 1001.01 997.85 998.10 992.92 996.04 995.21 995.49 996.76 998.87 999.90 1000.75 1001.22 1001.35 1000.79 999.83 1000.19 1001.59 1002.44 1003.80 1004.84 1005.60 1006.47 1007.01 1007.15 1008.08 1008.98 1009.85 1010.91 1012.03 1013.32 1014.11 1015.04 1015.59
1004.42 1004.10 1004.22 1004.55 1003.62 1003.43 1003.41 1003.09 1002.75 1002.48 1001.36 1000.97 996.02 998.13 996.62 995.14 994.95 995.70 997.94 999.92 1000.78 1001.08 1001.57 1001.89 1001.86 1001.26 1000.54 1001.54 1002.73 1003.73 1004.68 1005.58 1006.69 1007.12 1007.47 1008.06 1008.96 1009.62 1010.80 1012.06 1013.15 1013.97 1014.89 1015.70
1003.54 1003.42 1003.93 1004.42 1004.22 1003.75 1003.98 1003.63 1002.60 1001.18 1000.43 998.74 997.82 997.46 995.67 995.73 997.22 998.31 999.37 1000.70 1001.81 1001.73 1001.62 1001.93 1002.13 1002.36 1001.91 1001.92 1003.38 1004.36 1005.15 1005.97 1006.78 1007.51 1008.05 1008.57 1009.18 1009.46 1010.65 1012.11 1012.96 1013.81 1014.44 1015.37
1004.96 1003.43 1003.49 1004.36 1004.76 1004.11 1003.43 1003.70 1002.98 1001.27 1000.40 998.73 997.70 996.36 996.48 997.13 998.37 999.45 1000.74 1001.26 1001.38 1001.72 1002.68 1002.53 1002.86 1002.67 1003.28 1003.53 1003.92 1004.99 1005.72 1006.48 1007.26 1008.00 1008.61 1009.10 1009.40 1010.02 1011.08 1012.51 1013.48 1014.36 1015.20 1015.92
1006.58 1005.15 1005.50 1006.14 1005.87 1005.55 1004.52 1003.99 1003.71 1002.77 1002.36 1001.42 999.94 998.29 998.46 999.24 999.95 999.90 999.96 1001.00 1001.46 1001.87 1002.84 1003.49 1003.15 1003.56 1003.81 1004.13 1004.45 1005.35 1006.03 1006.94 1007.77 1008.61 1009.26 1009.65 1010.17 1011.25 1012.43 1013.13 1014.19 1015.06 1016.01 1016.55
1008.37 1007.80 1007.46 1006.80 1007.09 1006.71 1006.45 1006.77 1005.93 1004.96 1003.85 1002.03 1000.62 999.31 997.89 998.26 999.48 1000.51 1000.54 1000.59 1001.25 1001.84 1002.71 1003.62 1004.19 1004.51 1004.83 1004.91 1004.95 1005.79 1006.32 1007.48 1008.53 1009.35 1010.21 1010.72 1011.17 1012.03 1013.16 1013.92 1014.76 1015.81 1016.60 1016.91
1009.44 1009.45 1008.72 1008.42 1007.83 1006.92 1006.63 1006.80 1008.28 1008.28 1007.04 1004.85 1002.58 1001.56 1001.46 1001.12 1001.94 1001.96 1001.69 1001.29 1001.51 1002.03 1002.66 1003.53 1004.25 1005.18 1005.31 1005.55 1006.29 1007.33 1007.68 1008.77 1009.52 1010.51 1011.14 1011.72 1012.18 1012.92 1013.72 1014.44 1015.58 1016.55 1017.08 1017.47
1010.63 1010.34 1009.24 1008.19 1007.80 1007.32 1007.39 1007.33 1007.66 1007.70 1007.21 1007.48 1006.69 1005.15 1004.47 1003.71 1003.33 1003.38 1003.04 1002.02 1001.91 1002.32 1002.89 1003.69 1004.43 1005.26 1005.76 1006.72 1007.55 1008.32 1009.29 1010.00 1010.81 1011.40 1011.65 1012.37 1013.10 1013.75 1014.45 1015.09 1015.83 1016.88 1017.58 1018.05
1012.21 1011.38 1009.82 1008.38 1007.72 1006.76 1006.44 1006.27 1006.46 1006.86 1007.09 1007.61 1007.14 1005.81 1005.71 1005.22 1005.24 1004.79 1003.55 1002.36 1001.97 1002.20 1002.76 1003.81 1004.54 1005.15 1006.11 1007.25 1008.10 1009.02 1009.84 1010.93 1011.64 1011.88 1012.15 1012.94 1013.75 1014.41 1015.21 1016.07 1016.63 1017.38 1017.92 1018.77
1013.13 1012.34 1011.71 1009.74 1008.17 1007.48 1006.16 1006.01 1006.10 1006.14 1006.69 1006.30 1005.76 1005.39 1005.45 1005.28 1004.92 1004.15 1002.91 1002.25 1001.70 1001.75 1002.31 1003.33 1004.06 1005.44 1006.08 1007.31 1008.25 1009.15 1010.21 1011.02 1011.83 1012.20 1012.81 1013.17 1013.97 1014.84 1015.59 1016.29 1016.80 1017.67 1018.28 1018.97
1012.96 1012.28 1011.52 1010.06 1009.03 1007.83 1006.59 1005.53 1005.04 1005.76 1006.19 1005.85 1005.11 1004.49 1003.70 1003.02 1002.78 1003.28 1003.03 1001.63 1001.43 1001.38 1001.97 1002.31 1003.65 1005.26 1005.95 1006.86 1008.12 1009.21 1010.17 1011.13 1011.67 1012.37 1012.98 1013.63 1014.34 1015.08 1015.80 1016.72 1017.19 1017.85 1018.41 1019.09
1012.23 1012.10 1011.75 1010.28 1009.22 1007.97 1006.15 1005.05 1004.77 1004.07 1003.67 1002.94 1002.80 1002.19 1002.01 1001.46 1001.28 1002.30 1001.64 1001.08 1001.12 1001.24 1001.51 1001.92 1002.82 1004.05 1005.79 1006.23 1007.51 1008.55 1009.68 1010.65 1011.67 1012.43 1013.47 1014.19 1014.92 1015.53 1016.31 1016.80 1017.34 1017.90 1018.48 1019.16
1012.24 1012.28 1011.93 1010.00 1009.16 1007.17 1005.57 1004.06 1002.99 1002.83 1002.53 1002.10 1001.18 1000.65 1000.40 1000.12 1000.16 1000.46 1000.77 1000.80 1000.76 1001.19 1002.00 1002.72 1002.60 1003.16 1004.15 1005.55 1006.47 1007.86 1009.61 1011.07 1011.85 1012.41 1013.28 1014.40 1015.03 1015.49 1016.11 1016.92 1017.49 1018.03 1018.59 1018.99
1011.18 1011.27 1011.35 1010.26 1009.45 1006.50 1003.79 1003.20 1001.98 1001.33 1000.91 1000.60 1000.04 999.82 999.58 999.32 999.52 1000.51 1000.38 1000.71 1001.06 1001.89 1002.34 1002.93 1002.96 1003.16 1003.19 1004.02 1005.41 1007.08 1009.01 1010.65 1011.63 1012.24 1012.94 1013.97 1014.59 1015.44 1016.23 1016.83 1017.39 1017.68 1018.09 1018.96
1009.43 1009.67 1009.80 1009.96 1008.16 1006.01 1004.05 1002.57 1001.40 1000.23 1000.09 999.26 998.91 998.90 998.91 998.87 999.36 999.89 1000.06 1000.73 1001.77 1002.44 1002.83 1002.87 1003.21 1003.45 1003.54 1003.50 1004.50 1006.62 1008.31 1009.69 1011.09 1012.10 1012.84 1013.60 1014.16 1014.92 1015.95 1016.48 1017.01 1017.55 1018.45 1019.27
1007.51 1007.62 1008.53 1008.69 1007.21 1005.14 1003.24 1001.68 1001.23 1000.61 998.96 999.15 998.68 998.44 998.47 998.76 999.36 1000.22 1001.28 1001.56 1002.19 1002.51 1002.95 1003.42 1003.69 1003.79 1003.83 1003.70 1003.81 1006.11 1007.81 1009.30 1010.75 1011.64 1012.51 1013.18 1014.08 1014.94 1016.09 1016.80 1017.59 1018.31 1018.69 1018.99
1006.43 1007.36 1007.09 1006.93 1006.21 1004.36 1002.98 1001.83 1001.41 1001.81 999.09 998.21 997.86 997.76 998.35 998.76 999.44 1001.00 1001.78 1002.08 1002.52 1002.91 1003.34 1003.76 1003.73 1004.12 1004.53 1005.00 1004.80 1006.61 1008.05 1009.16 1010.69 1011.96 1012.81 1013.61 1014.39 1015.16 1016.28 1016.99 1017.95 1017.95 1018.44 1019.13
1006.25 1005.74 1005.72 1006.05 1005.61 1004.03 1002.98 1001.37 1001.03 1001.22 999.74 999.26 998.84 998.46 998.86 999.37 1000.38 1001.15 1001.58 1002.01 1002.48 1002.82 1003.10 1003.67 1004.00 1004.72 1005.53 1006.47 1007.27 1008.23 1009.13 1009.87 1010.87 1012.06 1013.04 1014.00 1014.82 1015.82 1016.36 1017.31 1017.91 1017.95 1018.61 1019.24
1005.90 1006.47 1006.38 1005.58 1003.83 1003.70 1003.42 1003.05 1001.89 1002.16 1000.75 1000.05 1000.21 998.51 999.23 999.91 1000.47 1000.95 1001.36 1001.64 1002.15 1002.72 1002.95 1003.52 1004.28 1005.57 1006.65 1007.37 1008.31 1009.15 1010.13 1010.69 1011.48 1012.45 1013.38 1014.37 1015.19 1015.96 1016.65 1017.16 1017.57 1018.17 1018.68 1019.32
1005.16 1005.14 1005.24 1004.77 1003.27 1002.66 1003.58 1002.89 1001.97 1001.94 1001.89 1000.44 1000.04 999.70 999.97 1000.16 1000.55 1001.03 1001.27 1001.48 1001.85 1002.29 1002.99 1003.64 1004.55 1005.77 1007.00 1007.89 1008.74 1009.72 1010.56 1011.35 1011.89 1012.67 1013.66 1014.49 1015.27 1015.97 1016.73 1017.21 1017.82 1017.99 1018.59 1019.26
1005.34 1004.97 1004.52 1003.78 1003.09 1002.36 1002.12 1002.00 1001.56 1001.07 1000.67 1000.08 1000.04 1000.01 1000.15 1000.49 1000.71 1001.03 1001.25 1001.52 1001.84 1002.34 1002.96 1003.95 1005.01 1006.14 1007.30 1008.15 1009.12 1009.98 1010.84 1011.64 1012.22 1012.76 1013.65 1014.42 1015.20 1015.84 1016.67 1017.13 1017.67 1018.13 1018.85 1019.43
1004.68 1003.86 1003.64 1002.98 1002.61 1002.37 1002.17 1002.14 1002.46 1002.08 1001.45 1000.85 1000.70 1000.46 1000.62 1000.92 1001.07 1001.22 1001.36 1001.59 1001.96 1002.40 1003.05 1004.00 1005.57 1006.69 1007.83 1008.61 1009.60 1009.76 1010.84 1011.45 1011.95 1012.56 1013.50 1014.19 1015.01 1015.71 1016.36 1016.97 1017.93 1018.59 1019.11 1019.52
Wind_Speed
17 13 18 19 20 20 21 23 24 22 19 21 23 24 22 20 24 23 20 18 19 20 19 19 17 14 17 17 20 21 21 18 14 13 13 12 11 10 9 8 11 9 9 8
19 21 18 19 20 19 20 24 25 24 21 22 24 29 23 20 22 24 23 22 22 21 21 18 18 14 18 19 21 22 23 22 18 13 12 11 11 10 9 9 10 9 9 9
23 21 10 10 17 18 22 22 23 27 22 24 23 34 27 31 25 2 8 10 12 11 13 8 11 14 16 19 22 21 22 23 20 18 13 12 11 10 10 11 9 9 9 7
17 16 21 23 23 19 29 18 23 23 22 17 15 25 21 20 12 16 12 5 2 5 9 11 13 11 14 15 16 18 21 22 21 20 17 18 14 14 12 12 10 10 10 8
5 4 10 16 16 16 29 20 23 22 22 23 32 18 30 20 24 23 14 7 3 4 6 8 12 14 14 15 14 13 15 16 16 17 16 14 15 11 12 11 14 12 9 9
18 15 12 14 14 11 16 16 19 19 17 18 41 17 23 19 20 19 14 4 1 1 3 5 6 9 5 9 10 12 13 14 13 13 13 16 15 14 13 13 12 10 9 8
16 20 14 13 16 14 12 12 10 15 17 21 27 21 18 2 7 5 5 2 0 3 4 4 4 7 5 6 6 4 10 12 11 9 8 11 12 13 17 16 11 13 10 10
17 20 16 4 8 15 16 15 15 18 18 20 20 22 15 10 8 8 3 2 3 6 5 4 4 3 3 3 6 5 5 10 8 7 6 10 10 8 10 11 10 8 8 8
15 20 4 7 9 8 11 20 22 25 26 24 24 32 11 10 10 9 8 4 2 4 5 6 7 6 3 4 7 9 8 6 7 8 6 9 10 12 9 11 9 8 12 10
11 16 18 14 8 16 15 15 10 8 11 28 22 28 23 19 17 8 9 6 3 3 3 4 5 5 3 2 3 6 9 10 8 9 11 10 12 12 12 12 12 11 11 13
9 12 11 15 16 20 18 9 3 5 6 8 8 16 11 10 5 6 4 2 3 1 1 3 4 3 3 4 7 8 9 12 11 10 10 12 12 13 13 12 12 11 11 14
17 19 18 23 21 23 25 21 21 9 4 7 8 9 9 2 7 6 4 4 4 2 3 2 2 3 5 6 7 8 9 10 9 10 12 13 13 13 13 12 13 12 12 13
11 9 16 22 21 26 30 30 26 25 10 19 16 10 11 12 10 13 13 8 7 7 5 4 3 1 5 6 7 9 10 11 12 12 14 14 13 13 13 13 13 13 14 13
10 16 24 21 24 25 28 27 20 12 10 10 9 10 13 13 14 13 14 12 11 10 10 7 5 3 6 7 9 10 10 12 13 13 13 14 14 13 12 12 12 13 13 13
8 17 23 26 30 29 32 33 29 21 22 15 21 22 24 19 13 12 19 18 13 12 9 9 9 9 9 11 11 13 14 12 13 15 14 12 12 12 12 11 11 13 13 13
18 17 19 24 25 30 32 33 29 27 28 27 24 27 24 20 13 17 20 17 11 10 9 6 9 9 11 12 13 15 15 13 10 11 10 9 11 11 11 11 11 13 13 13
20 17 20 23 23 25 17 30 29 25 25 26 25 24 22 20 17 11 13 10 8 6 3 4 4 8 12 13 13 14 14 14 13 12 14 12 12 12 12 11 11 12 13 13
22 23 18 20 20 26 23 17 28 28 25 24 24 22 20 19 8 12 6 6 6 1 3 3 3 5 6 14 14 15 16 16 13 13 14 13 13 13 12 14 14 13 12 12
23 22 18 19 19 22 30 22 21 17 19 19 19 14 17 13 6 10 8 5 3 2 5 5 5 6 7 9 15 17 15 14 12 13 14 14 15 15 14 14 14 12 11 10
17 18 15 18 23 23 22 24 11 31 19 18 19 18 16 10 7 1 9 5 2 2 5 7 8 7 7 9 8 17 14 13 13 14 14 13 14 15 14 12 13 12 12 12
9 7 17 18 19 19 24 26 17 15 10 5 9 11 10 8 3 13 5 3 4 4 4 7 6 7 7 7 4 13 12 13 11 12 12 12 13 13 13 13 10 12 12 10
14 11 11 11 14 21 16 20 23 9 10 3 12 6 6 7 7 3 2 2 2 4 3 4 4 6 5 4 4 7 8 10 13 14 14 15 14 11 12 15 13 13 12 12
5 2 7 9 8 7 12 16 9 13 20 7 10 6 2 8 7 8 5 2 2 3 5 4 3 3 2 5 6 9 9 12 14 14 14 13 14 13 13 13 13 10 11 9
12 11 11 14 12 15 10 18 11 11 16 11 13 9 8 8 7 6 6 4 4 3 3 1 3 5 5 6 8 10 12 12 14 14 15 14 14 13 12 10 8 8 8 8
14 14 15 18 19 15 9 17 11 12 13 13 9 8 9 9 7 6 6 6 5 4 4 3 3 4 5 8 10 12 12 14 14 15 14 13 11 12 11 9 7 7 7 8
13 14 9 12 16 15 13 9 7 13 15 10 13 10 8 8 9 7 6 5 5 5 4 3 5 6 8 9 11 12 12 12 13 14 12 11 10 10 11 11 9 9 9 7
Wind_Direction
204 229 226 233 237 247 270 279 275 275 282 279 273 270 268 267 265 264 263 256 250 250 246 239 236 212 215 191 183 180 187 185 186 178 178 172 176 163 164 154 147 154 150 151
251 242 255 273 271 265 265 268 265 270 269 268 276 273 267 263 270 265 264 261 261 252 248 239 225 195 204 202 188 186 191 187 190 184 182 177 169 167 156 144 159 153 156 159
254 266 228 281 271 265 257 259 275 280 288 282 287 276 268 256 266 306 261 265 281 346 339 304 227 191 195 207 191 192 195 191 191 187 180 173 163 161 157 160 158 157 155 153
268 280 274 270 255 252 267 263 271 274 271 268 269 280 273 289 227 206 207 118 27 355 339 329 314 210 196 208 202 197 197 195 193 192 185 181 176 172 171 167 160 151 146 139
240 262 289 277 272 276 272 283 278 275 275 288 265 248 278 262 257 260 165 140 127 20 355 329 310 293 188 201 207 188 196 197 191 198 193 181 182 175 163 164 148 144 137 131
263 272 271 266 283 278 291 282 273 273 257 254 257 250 263 263 264 226 117 148 121 84 20 333 319 312 258 190 198 183 190 185 193 201 201 181 187 180 165 153 157 150 142 131
254 234 232 225 269 252 247 256 260 243 230 243 263 262 239 99 75 29 112 156 55 54 51 13 24 337 317 202 135 134 178 185 189 190 192 183 199 171 165 159 159 150 145 134
277 266 266 79 258 282 276 240 246 271 264 269 253 241 265 104 126 132 136 134 103 56 27 31 42 58 300 256 166 170 184 175 164 157 194 180 209 145 142 158 135 131 123 103
297 278 29 299 318 298 279 243 265 271 262 268 265 276 149 171 169 173 164 200 90 72 33 23 26 24 335 241 215 165 187 153 146 161 139 124 125 128 142 128 129 135 115 118
281 289 279 278 258 263 256 340 286 241 260 257 249 253 261 210 184 185 212 198 153 113 97 47 27 23 348 310 198 155 163 152 125 107 125 126 125 126 126 121 122 121 129 116
292 267 270 284 275 273 264 226 310 300 287 298 271 257 12 71 69 307 281 168 285 239 134 60 65 57 71 73 76 69 89 103 111 121 120 116 122 120 119 118 111 126 118 117
295 297 282 279 285 292 294 268 266 269 265 268 298 281 342 120 160 251 262 305 334 327 330 6 38 78 86 98 115 115 118 127 131 136 126 125 124 126 122 124 120 126 117 109
346 283 280 272 264 253 250 256 254 262 254 253 258 257 351 4 332 306 279 267 283 265 250 227 189 143 123 135 134 128 143 143 146 135 128 124 123 121 119 121 126 125 122 124
291 276 267 269 275 286 285 288 299 262 247 251 247 307 299 280 279 255 277 270 266 249 233 225 211 207 166 167 166 156 154 152 151 142 138 133 134 133 134 136 132 127 131 129
273 273 273 270 273 275 282 269 267 247 260 257 274 268 270 273 251 267 285 281 280 276 247 225 217 177 208 172 174 170 162 163 156 154 146 139 132 127 127 130 131 134 139 138
268 273 281 284 281 274 271 259 263 274 272 273 271 277 280 277 258 208 237 257 262 269 276 255 205 194 209 189 181 179 170 162 145 135 125 125 130 131 135 132 137 134 131 136
262 268 277 273 285 281 289 258 253 253 260 267 275 284 284 278 276 243 262 271 254 260 131 309 285 204 190 210 184 182 176 167 157 149 144 146 142 136 132 133 139 142 148 144
262 262 260 265 275 269 274 293 245 249 256 257 262 273 276 274 270 264 210 263 255 211 28 294 296 296 256 185 198 177 170 178 166 153 149 148 145 141 144 151 155 153 142 148
235 241 249 255 255 283 289 278 260 260 275 264 275 277 273 265 238 253 225 107 44 346 312 340 345 320 289 276 186 173 168 171 158 162 157 156 155 150 157 154 149 139 140 149
234 249 236 240 256 259 268 287 341 313 248 267 247 257 252 253 228 271 33 119 103 27 0 350 345 326 319 285 200 168 162 165 173 167 159 152 155 144 152 139 140 150 165 162
288 249 233 230 244 256 263 274 284 276 258 299 296 245 247 225 199 128 159 109 73 53 23 2 357 346 15 355 118 162 164 166 153 147 142 139 134 136 140 137 147 159 154 151
301 286 241 228 239 258 316 272 265 237 349 314 287 225 210 204 120 166 154 78 12 338 20 25 4 7 37 45 119 134 140 127 132 138 138 138 141 141 139 146 158 160 155 152
291 352 305 290 293 209 242 281 304 307 311 288 298 290 199 218 204 213 220 216 307 316 338 52 347 104 113 139 139 137 131 133 136 139 139 140 138 145 146 154 155 158 163 156
304 321 295 302 295 317 357 296 274 257 298 249 250 278 216 233 219 227 229 248 258 248 266 193 200 189 177 160 152 143 145 146 145 142 146 145 147 145 147 149 165 161 159 159
290 294 287 284 287 310 268 261 325 297 272 289 248 248 245 239 241 253 269 269 283 301 264 186 185 191 176 155 152 148 148 156 157 150 147 146 146 146 149 158 160 158 155 171
273 270 273 276 299 308 299 335 321 327 318 294 287 250 251 247 253 258 266 276 285 291 287 175 157 173 181 168 155 149 160 169 160 153 152 151 152 153 162 156 143 117 117 111